When you browse on this site, cookies collect data to enhance your experience and personalize the content and advertising you see.
Visit our Privacy Policy to learn more. By continuing to use the site, you agree to this use of cookies and data.
  • In Hungary
  • List of Countries
  • For 7 days
  • Water Temperature
  • Satellite Maps
  • Weather Map
  • News
  • Weather Widgets
  • user-avatar
    Login

    Hourly Weather Pyrnik

    Today, 11 December, Tuesday

    Time Temperature Precipitation Wind Pressure Humidity
    00:00 +2°C° 0.1 mm 5 mps 751 mmHg 79%
    01:00 +2°C° 0.1 mm 5 mps 751 mmHg 80%
    02:00 +2°C° 0.4 mm 5 mps 750 mmHg 80%
    03:00 +2°C° 0.4 mm 5 mps 750 mmHg 80%
    04:00 +2°C° 0.4 mm 5 mps 750 mmHg 79%
    05:00 +2°C° 0.6 mm 5 mps 750 mmHg 79%
    06:00 +2°C° 0.6 mm 6 mps 750 mmHg 80%
    07:00 +2°C° 0.6 mm 6 mps 750 mmHg 80%
    08:00 +2°C° 0.3 mm 6 mps 750 mmHg 81%
    09:00 +2°C° 0.3 mm 5 mps 751 mmHg 82%
    10:00 +2°C° 0.3 mm 5 mps 751 mmHg 82%
    11:00 +2°C° 0.3 mm 5 mps 752 mmHg 80%
    12:00 +2°C° 0.3 mm 5 mps 752 mmHg 78%
    13:00 +2°C° 0.3 mm 5 mps 752 mmHg 76%
    14:00 +2°C° 0.1 mm 5 mps 753 mmHg 77%
    15:00 +2°C° 0.1 mm 5 mps 753 mmHg 78%
    16:00 +1°C° 0.1 mm 4 mps 754 mmHg 80%
    17:00 +1°C° 0.1 mm 4 mps 754 mmHg 81%
    18:00 +1°C° 0.1 mm 4 mps 755 mmHg 82%
    19:00 +1°C° 0.1 mm 4 mps 755 mmHg 84%
    20:00 0°C° 0.1 mm 4 mps 755 mmHg 85%
    21:00 0°C° 0.1 mm 4 mps 756 mmHg 87%
    22:00 0°C° 0.1 mm 4 mps 756 mmHg 89%
    23:00 0°C° 0.1 mm 4 mps 757 mmHg 89%

    Tomorrow, 12 December, Wednesday

    Time Temperature Precipitation Wind Pressure Humidity
    00:00 +1°C° 0.1 mm 3 mps 757 mmHg 90%
    01:00 +1°C° 0.1 mm 3 mps 757 mmHg 91%
    02:00 +1°C° 0 mm 3 mps 758 mmHg 91%
    03:00 +1°C° 0 mm 3 mps 758 mmHg 90%
    04:00 +2°C° 0 mm 2 mps 758 mmHg 90%
    05:00 +2°C° 0 mm 2 mps 759 mmHg 89%
    06:00 +1°C° 0 mm 2 mps 759 mmHg 89%
    07:00 +1°C° 0 mm 2 mps 760 mmHg 88%
    08:00 +1°C° 0 mm 2 mps 760 mmHg 87%
    09:00 +1°C° 0 mm 2 mps 761 mmHg 86%
    10:00 +1°C° 0 mm 2 mps 761 mmHg 84%
    11:00 +2°C° 0 mm 2 mps 761 mmHg 82%
    12:00 +2°C° 0 mm 2 mps 761 mmHg 81%
    13:00 +3°C° 0 mm 2 mps 761 mmHg 79%
    14:00 +2°C° 0 mm 2 mps 762 mmHg 82%
    15:00 +1°C° 0 mm 2 mps 762 mmHg 86%
    16:00 +2°C° 0 mm 1 mps 762 mmHg 90%
    17:00 +1°C° 0 mm 1 mps 762 mmHg 91%
    18:00 +1°C° 0 mm 1 mps 762 mmHg 92%
    19:00 +1°C° 0 mm 1 mps 762 mmHg 93%
    20:00 +1°C° 0.1 mm 1 mps 762 mmHg 93%
    21:00 +2°C° 0.1 mm 1 mps 763 mmHg 93%
    22:00 +2°C° 0.1 mm 1 mps 763 mmHg 93%
    23:00 +2°C° 0.1 mm 1 mps 763 mmHg 94%

    Day after tomorrow, 13 December, Thursday

    Time Temperature Precipitation Wind Pressure Humidity
    00:00 +2°C° 0.1 mm 1 mps 763 mmHg 94%
    01:00 +2°C° 0.1 mm 1 mps 763 mmHg 95%
    02:00 +1°C° 0.1 mm 1 mps 762 mmHg 95%
    03:00 -1°C° 0.1 mm 2 mps 762 mmHg 95%
    04:00 -1°C° 0.1 mm 2 mps 762 mmHg 95%
    05:00 -1°C° 0.1 mm 2 mps 762 mmHg 95%
    06:00 -1°C° 0.1 mm 2 mps 762 mmHg 95%
    07:00 -1°C° 0.1 mm 2 mps 762 mmHg 95%
    08:00 -1°C° 0 mm 2 mps 762 mmHg 93%
    09:00 -1°C° 0 mm 2 mps 762 mmHg 91%
    10:00 -1°C° 0 mm 2 mps 762 mmHg 89%
    11:00 +1°C° 0 mm 2 mps 762 mmHg 87%
    12:00 +1°C° 0 mm 2 mps 762 mmHg 85%
    13:00 +1°C° 0 mm 2 mps 762 mmHg 83%
    14:00 +1°C° 0 mm 2 mps 762 mmHg 84%
    15:00 +1°C° 0 mm 2 mps 762 mmHg 84%
    16:00 +1°C° 0 mm 2 mps 762 mmHg 85%
    17:00 +1°C° 0 mm 2 mps 762 mmHg 85%
    18:00 -1°C° 0 mm 2 mps 762 mmHg 85%
    19:00 -1°C° 0 mm 2 mps 762 mmHg 85%
    20:00 -1°C° 0 mm 2 mps 762 mmHg 85%
    21:00 -1°C° 0 mm 2 mps 763 mmHg 85%
    22:00 +1°C° 0 mm 1 mps 763 mmHg 86%
    23:00 +1°C° 0 mm 1 mps 763 mmHg 86%

    14 December, Friday

    Time Temperature Precipitation Wind Pressure Humidity
    00:00 +1°C° 0 mm 1 mps 763 mmHg 85%
    01:00 0°C° 0 mm 1 mps 763 mmHg 85%
    02:00 0°C° 0 mm 1 mps 763 mmHg 85%
    03:00 0°C° 0 mm 1 mps 763 mmHg 85%
    04:00 0°C° 0 mm 1 mps 763 mmHg 85%
    05:00 0°C° 0 mm 1 mps 763 mmHg 85%
    06:00 0°C° 0 mm 1 mps 763 mmHg 85%
    07:00 0°C° 0 mm 1 mps 763 mmHg 85%
    08:00 0°C° 0 mm 1 mps 763 mmHg 84%
    09:00 0°C° 0 mm 1 mps 763 mmHg 83%
    10:00 +1°C° 0 mm 1 mps 764 mmHg 82%
    11:00 +1°C° 0 mm 1 mps 763 mmHg 81%
    12:00 +1°C° 0 mm 1 mps 763 mmHg 79%
    13:00 +2°C° 0 mm 1 mps 763 mmHg 78%
    14:00 +1°C° 0 mm 1 mps 763 mmHg 81%
    15:00 +1°C° 0 mm 1 mps 764 mmHg 85%
    16:00 0°C° 0 mm 1 mps 764 mmHg 88%
    17:00 0°C° 0 mm 1 mps 764 mmHg 90%
    18:00 0°C° 0 mm 1 mps 764 mmHg 92%
    19:00 0°C° 0 mm 1 mps 764 mmHg 93%
    20:00 0°C° 0.1 mm 1 mps 764 mmHg 94%
    21:00 0°C° 0.1 mm 1 mps 764 mmHg 94%
    22:00 0°C° 0.1 mm 1 mps 765 mmHg 94%
    23:00 0°C° 0.1 mm 1 mps 765 mmHg 94%

    15 December, Saturday

    Time Temperature Precipitation Wind Pressure Humidity
    00:00 0°C° 0.1 mm 1 mps 765 mmHg 94%
    01:00 +1°C° 0.1 mm 1 mps 765 mmHg 94%
    02:00 +1°C° 0.2 mm 1 mps 765 mmHg 95%
    03:00 +1°C° 0.2 mm 1 mps 765 mmHg 95%
    04:00 0°C° 0.2 mm 1 mps 765 mmHg 95%
    05:00 0°C° 0.1 mm 1 mps 765 mmHg 95%
    06:00 0°C° 0.1 mm 1 mps 765 mmHg 95%
    07:00 0°C° 0.1 mm 1 mps 765 mmHg 95%
    08:00 +1°C° 0.1 mm 1 mps 766 mmHg 94%
    09:00 +1°C° 0.1 mm 1 mps 766 mmHg 92%
    10:00 +1°C° 0.1 mm 1 mps 766 mmHg 90%
    11:00 +1°C° 0 mm 1 mps 766 mmHg 89%
    12:00 +2°C° 0 mm 1 mps 766 mmHg 87%
    13:00 +2°C° 0 mm 1 mps 766 mmHg 86%
    14:00 +2°C° 0 mm 1 mps 766 mmHg 88%
    15:00 +1°C° 0 mm 1 mps 767 mmHg 90%
    16:00 +1°C° 0 mm 1 mps 767 mmHg 92%
    17:00 0°C° 0 mm 1 mps 767 mmHg 93%
    18:00 0°C° 0 mm 1 mps 767 mmHg 94%
    19:00 0°C° 0 mm 1 mps 767 mmHg 95%
    20:00 0°C° 0 mm 1 mps 767 mmHg 94%
    21:00 0°C° 0 mm 1 mps 767 mmHg 94%
    22:00 0°C° 0 mm 1 mps 767 mmHg 93%
    23:00 0°C° 0 mm 1 mps 767 mmHg 94%

    16 December, Sunday

    Time Temperature Precipitation Wind Pressure Humidity
    00:00 0°C° 0 mm 1 mps 767 mmHg 94%
    01:00 0°C° 0 mm 1 mps 767 mmHg 94%
    02:00 -2°C° 0 mm 2 mps 766 mmHg 95%
    03:00 -3°C° 0 mm 2 mps 766 mmHg 95%
    04:00 -3°C° 0 mm 2 mps 766 mmHg 96%
    05:00 -3°C° 0 mm 2 mps 766 mmHg 96%
    06:00 -3°C° 0 mm 2 mps 766 mmHg 95%
    07:00 -4°C° 0 mm 2 mps 765 mmHg 95%
    08:00 -4°C° 0 mm 3 mps 765 mmHg 92%
    09:00 -4°C° 0 mm 3 mps 765 mmHg 88%
    10:00 -3°C° 0 mm 4 mps 765 mmHg 85%
    11:00 -3°C° 0 mm 4 mps 764 mmHg 82%
    12:00 -2°C° 0 mm 4 mps 764 mmHg 79%
    13:00 -2°C° 0 mm 4 mps 764 mmHg 77%
    14:00 -2°C° 0 mm 4 mps 763 mmHg 79%
    15:00 -2°C° 0 mm 3 mps 763 mmHg 81%
    16:00 -2°C° 0 mm 3 mps 763 mmHg 83%
    17:00 -3°C° 0 mm 4 mps 763 mmHg 84%
    18:00 -3°C° 0 mm 4 mps 763 mmHg 84%
    19:00 -3°C° 0 mm 4 mps 763 mmHg 84%
    20:00 -3°C° 0 mm 4 mps 762 mmHg 84%
    21:00 -3°C° 0 mm 4 mps 762 mmHg 84%
    22:00 -2°C° 0 mm 3 mps 762 mmHg 85%
    23:00 -2°C° 0 mm 3 mps 762 mmHg 85%
    Show more